[[{"header":{"parameterUnit":"m.s-1","parameterCategory":1,"la1":30.2991,"la2":30.254,"lo1":-89.0895,"lo2":-89.0444,"dy":0.0017,"dx":0.0017,"nx":28,"ny":28,"refTime":"2024-09-03T09:00:00:Z","depth":0,"parameterNumber":2,"parameterNumberName":"U-component_of_WINDS"},"data":[0,0,0,0,0,0,0,0,0,0,0,0,0,0,0,0,0,0,0,0,0,0,0,0,0,0,0,0,0,0,0,0,0,0,0,0,0,0,0,0,0,0,0,0,0,0,0,0,0,0,0,0,0,0,0,0,0,0,-8.0031,-8.0031,0,-8.0045,-8.0045,-8.0045,-7.9945,-7.9943,-7.994,-7.9937,-7.9948,-7.9951,-7.9954,0,0,0,0,0,0,0,0,0,0,0,0,0,-7.9915,-7.9917,-8.0031,-8.0031,-8.0031,-8.0045,-8.0045,-8.0045,-7.9946,-7.9942,-7.9939,-7.9936,-7.9948,-7.9951,-7.9954,0,0,0,0,0,0,0,0,0,0,0,0,0,-7.9951,-7.9918,-8.0031,-7.9983,-7.9979,-8.0045,-8.0045,-8.0046,-7.9947,-7.9942,-7.9938,-7.9934,-7.9946,-7.9951,-7.9955,-8.0066,0,0,-7.9968,-7.997,0,0,0,0,0,0,0,0,-7.9949,-7.9955,-7.999,-7.9987,-7.9982,-7.9989,-8.0008,-8.0052,-7.9948,-7.9959,-7.9937,-7.9932,-7.9965,-7.9968,-7.998,-8.0067,-8.0067,-7.9969,-7.9971,-7.9973,-7.9974,0,0,0,0,0,0,0,-7.9946,-7.9954,-8.0036,-7.9991,-7.9986,-7.996,-7.9961,-8.0016,-7.9985,-7.9958,-7.995,-7.9954,-7.9962,-7.9976,-7.9979,-8.0067,-7.9969,-7.9972,-7.9975,-7.9977,-8.0243,-8.0247,0,0,0,0,0,0,-7.9951,-7.9952,-8.0036,-8.0037,-7.9955,-7.9966,-7.9966,-7.9991,-7.9985,-7.998,-7.9957,-7.9949,-7.997,-7.9974,-7.9979,-8.0105,-7.9973,-7.9977,-7.998,-8.0239,-8.0244,-8.0249,0,0,0,0,0,0,-7.9949,-7.9959,-8.0035,-7.9993,-8.0,-7.9972,-8.0001,-7.9994,-8.0007,-7.9984,-7.9978,-7.9977,-7.9967,-7.9973,-8.0045,-8.0104,-7.9979,-7.9983,-8.0233,-8.024,-8.0246,-8.036,0,0,0,0,0,0,-7.9946,-7.9959,-8.0001,-7.9995,-8.0003,-8.0102,-8.0005,-7.9997,-8.0015,-8.0004,-8.0001,-7.9996,-7.9964,-8.0039,-8.0049,-8.0108,-7.9987,-8.0228,-8.0236,-8.0244,-8.0351,-8.037,-8.0386,0,0,0,0,0,-7.9942,-8.0033,-8.0004,-8.0015,-8.0056,-8.0105,-8.011,-8.0072,-8.002,-8.0062,-8.0047,-7.9996,-8.0098,-8.0047,-8.0058,-8.0119,-8.0224,-8.0234,-8.0244,-8.0343,-8.0366,-8.0386,0,0,0,0,0,0,-8.0046,-8.0031,-7.9999,-8.0091,-8.01,-8.0088,-8.0139,-8.0099,-8.0122,-8.0111,-8.0063,-8.0063,-8.0142,-8.0139,-8.0082,-8.0225,-8.0151,-8.0164,-8.0223,-8.0245,-8.0262,-8.0258,-7.999,0,0,0,0,0,-8.008,-8.0123,-8.0107,-8.0189,-8.0196,-8.0168,-8.0188,-8.0158,-8.0166,-8.0169,-8.0159,-8.0168,-8.0201,-8.0224,-8.0254,-8.0352,-8.0347,-8.0399,-8.0417,-8.0432,-8.0441,-8.0489,-8.0511,-8.0282,-8.0282,-8.0281,0,0,-8.015,-8.0147,-8.0176,-8.021,-8.0214,-8.0257,-8.0171,-8.0221,-8.0252,-8.0176,-8.0241,-8.0236,-8.0242,-8.0327,-8.0364,-8.0326,-8.0505,-8.0445,-8.0456,-8.0458,-8.0502,-8.0523,-8.0543,-8.0289,-8.0287,-8.0286,0,0,-8.0297,-8.0302,-8.0368,-8.0375,-8.0382,-8.0363,-8.038,-8.0375,-8.0368,-8.0434,-8.0377,-8.0414,-8.0473,-8.0478,-8.0489,-8.0642,-8.0594,-8.0653,-8.0743,-8.079,-8.0808,-8.0824,-8.0873,-8.0892,-8.0664,-8.0665,-8.0665,0,-8.0382,-8.0445,-8.0408,-8.0461,-8.0476,-8.0412,-8.0478,-8.0486,-8.0503,-8.0514,-8.0473,-8.0545,-8.0545,-8.0628,-8.0666,-8.0679,-8.0693,-8.065,-8.0809,-8.0824,-8.0838,-8.0885,-8.0904,-8.0671,-8.067,-8.067,-8.0669,0,-8.0547,-8.0592,-8.0646,-8.0663,-8.0686,-8.0746,-8.0716,-8.0743,-8.0713,-8.0698,-8.0765,-8.0763,-8.079,-8.0809,-8.078,-8.0888,-8.0864,-8.0818,-8.0741,-8.0867,-8.091,-8.0928,-8.0681,-8.0678,-8.0676,-8.0675,0,0,-8.0755,-8.0753,-8.0773,-8.0779,-8.0784,-8.0817,-8.0875,-8.0902,-8.0923,-8.0939,-8.0982,-8.1036,-8.0992,-8.1005,-8.0976,-8.1019,-8.1134,-8.0966,-8.0966,-8.0993,-8.1248,-8.1278,-8.13,-8.1106,-8.1109,-8.1112,-8.1245,0,-8.0894,-8.099,-8.0959,-8.1056,-8.1095,-8.1036,-8.1085,-8.1093,-8.1082,-8.1113,-8.11,-8.1136,-8.1079,-8.1085,-8.1126,-8.1112,-8.1184,-8.1103,-8.1142,-8.1144,-8.1135,-8.1323,-8.1355,-8.1481,-8.1262,-8.1265,-8.1267,0,-8.1068,-8.109,-8.1191,-8.1187,-8.1203,-8.1248,-8.1269,-8.1301,-8.1309,-8.1297,-8.1312,-8.1275,-8.1329,-8.1259,-8.133,-8.1276,-8.1291,-8.1288,-8.1291,-8.1288,-8.1208,-8.1319,-8.1521,-8.1537,-8.1294,-8.1292,-8.129,0,-8.1202,-8.1258,-8.1324,-8.1333,-8.1332,-8.1364,-8.1365,-8.1369,-8.1387,-8.1407,-8.1417,-8.1444,-8.1457,-8.1477,-8.1448,-8.14,-8.1522,-8.1451,-8.1511,-8.1511,-8.1533,-8.1531,-8.1734,-8.1555,-8.1554,-8.1554,-8.1554,0,-8.1357,-8.142,-8.1384,-8.1424,-8.1492,-8.1457,-8.1525,-8.152,-8.1524,-8.1561,-8.1514,-8.1549,-8.1511,-8.1543,-8.1521,-8.1581,-8.1589,-8.1579,-8.1571,-8.1579,-8.158,-8.1584,-8.1572,-8.1559,-8.1558,-8.1557,-8.1556,0,-8.1515,-8.1495,-8.1562,-8.1558,-8.1558,-8.1608,-8.1602,-8.1639,-8.1626,-8.1673,-8.1682,-8.1661,-8.1696,-8.167,-8.1705,-8.169,-8.1768,-8.1751,-8.1765,-8.1758,-8.1817,-8.181,-8.2025,-8.2049,-8.186,-8.1862,-8.1864,0,-8.1612,-8.1659,-8.1659,-8.1681,-8.1685,-8.1722,-8.174,-8.1708,-8.1729,-8.1741,-8.1775,-8.1807,-8.1829,-8.1888,-8.1875,-8.1901,-8.188,-8.1954,-8.1883,-8.189,-8.1874,-8.1869,-8.1872,-8.1966,-8.1968,-8.197,-8.1972,0,-8.1784,-8.1772,-8.18,-8.1826,-8.1849,-8.1868,-8.1882,-8.1903,-8.1871,-8.1897,-8.1932,-8.195,-8.1986,-8.2016,-8.2038,-8.2038,-8.1998,-8.1996,-8.201,-8.2015,-8.2018,-8.2012,-8.1797,-8.1989,-8.1987,-8.1986,-8.1985,-8.1984,-8.191,-8.1947,-8.1953,-8.1986,-8.1995,-8.2009,-8.2042,-8.2034,-8.2063,-8.209,-8.2071,-8.2112,-8.2118,-8.2143,-8.2149,-8.218,-8.2149,-8.2171,-8.2175,-8.2179,-8.2185,-8.202,-8.2184,-8.2184,-8.2183,-8.2183,-8.2183,0,-8.2074,-8.2076,-8.2107,-8.2129,-8.2155,-8.212,-8.2134,-8.2157,-8.2194,-8.2204,-8.2228,-8.2268,-8.2298,-8.2289,-8.2315,-8.2341,-8.2324,-8.2349,-8.2343,-8.2343,-8.2214,-8.2196,-8.2362,-8.2362,-8.2362,-8.2362,-8.2362,-8.2362,-8.2162,-8.2222,-8.2211,-8.2275,-8.2276,-8.2316,-8.2327,-8.234,-8.2347,-8.2394,-8.2419,-8.2414,-8.2415,-8.2441,-8.2467,-8.2463,-8.2472,-8.2503,-8.2492,-8.237,-8.2352,-8.2335,-8.2318,-8.2507,-8.2507,-8.2617,-8.2618,-8.2619]},{"header":{"parameterUnit":"m.s-1","parameterCategory":1,"la1":30.2991,"la2":30.254,"lo1":-89.0895,"lo2":-89.0444,"dy":0.0017,"dx":0.0017,"nx":28,"ny":28,"refTime":"2024-09-03T09:00:00:Z","depth":0,"parameterNumber":3,"parameterNumberName":"V-component_of_WINDS"},"data":[0,0,0,0,0,0,0,0,0,0,0,0,0,0,0,0,0,0,0,0,0,0,0,0,0,0,0,0,0,0,0,0,0,0,0,0,0,0,0,0,0,0,0,0,0,0,0,0,0,0,0,0,0,0,0,0,0,0,3.0016,3.0016,0,3.0089,3.0089,3.009,3.0119,3.0119,3.0118,3.0118,3.0186,3.0188,3.019,0,0,0,0,0,0,0,0,0,0,0,0,0,2.9895,2.9898,3.0015,3.0016,3.0017,3.0088,3.0089,3.009,3.0119,3.0119,3.0118,3.0118,3.0186,3.0188,3.0191,0,0,0,0,0,0,0,0,0,0,0,0,0,2.9956,2.9898,3.0015,3.004,3.0043,3.0088,3.0089,3.0091,3.0119,3.0118,3.0118,3.0118,3.0185,3.0188,3.0191,3.0215,0,0,3.02,3.0201,0,0,0,0,0,0,0,0,2.9952,2.996,3.0036,3.0039,3.0042,3.0094,3.0072,3.0132,3.0119,3.009,3.0118,3.0118,3.0156,3.0161,3.0175,3.0218,3.0221,3.02,3.0202,3.0203,3.0204,0,0,0,0,0,0,0,2.9948,2.9957,3.0044,3.0037,3.0041,3.0046,3.0054,3.0084,3.0123,3.0092,3.0095,3.0103,3.0157,3.0172,3.0177,3.0222,3.02,3.0203,3.0205,3.0206,3.0289,3.0289,0,0,0,0,0,0,2.9941,2.9953,3.0042,3.0046,2.9996,3.0048,3.0058,3.0078,3.0123,3.013,3.0103,3.0104,3.0167,3.0173,3.0179,3.0211,3.0203,3.0206,3.0208,3.0288,3.0289,3.0289,0,0,0,0,0,0,2.9938,2.9948,3.0039,3.0001,3.0013,3.0051,3.0073,3.0079,3.0094,3.0131,3.0138,3.0112,3.0167,3.0175,3.0206,3.0214,3.0207,3.021,3.0288,3.0288,3.0289,3.0273,0,0,0,0,0,0,2.9934,2.9947,2.9958,3.0001,3.0015,3.0066,3.0074,3.0081,3.01,3.0102,3.0141,3.0147,3.0168,3.0202,3.0209,3.0218,3.0212,3.0287,3.0288,3.0289,3.0273,3.0273,3.0273,0,0,0,0,0,2.993,2.9949,2.9958,2.9968,3.0029,3.0066,3.0074,3.0099,3.0101,3.0111,3.0135,3.0146,3.0212,3.0205,3.0213,3.0223,3.0287,3.0288,3.0289,3.0273,3.0273,3.0273,0,0,0,0,0,0,2.9902,2.9955,2.9965,2.9999,3.0029,3.0071,3.0085,3.0098,3.0126,3.0126,3.0155,3.0163,3.0192,3.021,3.0202,3.0249,3.025,3.0253,3.0235,3.0236,3.0236,3.023,3.0215,0,0,0,0,0,2.9901,2.9929,2.9972,2.9997,3.0012,3.0046,3.0063,3.008,3.0111,3.0123,3.0149,3.0177,3.0204,3.0221,3.0248,3.0277,3.0285,3.0287,3.0287,3.0287,3.0289,3.0306,3.0307,3.0292,3.0292,3.0292,0,0,2.9896,2.9928,2.9944,2.9993,3.0018,3.0045,3.0056,3.0084,3.0104,3.0126,3.0158,3.0178,3.0211,3.0242,3.0256,3.0258,3.0295,3.0288,3.0288,3.029,3.0307,3.0308,3.031,3.0293,3.0293,3.0293,0,0,2.9903,2.993,2.9955,2.998,3.0019,3.0042,3.0047,3.0089,3.0104,3.0137,3.0155,3.0178,3.0224,3.0247,3.0265,3.0282,3.0293,3.029,3.0289,3.0306,3.0307,3.0308,3.0314,3.0316,3.0292,3.0292,3.0292,0,2.9892,2.9936,2.9965,2.9993,3.0014,3.0039,3.0063,3.0086,3.013,3.0143,3.0145,3.0204,3.0228,3.0264,3.0269,3.0282,3.0289,3.0285,3.0305,3.0306,3.0308,3.0314,3.0316,3.0291,3.0291,3.0291,3.0291,0,2.9921,2.995,2.9966,3.0011,3.0033,3.0059,3.0091,3.011,3.0126,3.0148,3.0181,3.0211,3.0245,3.0255,3.0269,3.0294,3.0294,3.03,3.0302,3.0308,3.0315,3.0317,3.029,3.029,3.029,3.0291,0,0,2.991,2.9974,2.9978,3.0,3.0045,3.0068,3.0095,3.013,3.0146,3.0176,3.0198,3.0238,3.0245,3.0265,3.0282,3.0296,3.0309,3.0301,3.0302,3.0301,3.0338,3.0332,3.0335,3.0317,3.0317,3.0318,3.0335,0,2.9922,2.9974,3.0002,3.0042,3.007,3.0094,3.0118,3.0147,3.0169,3.0194,3.0217,3.0245,3.0252,3.0264,3.028,3.0304,3.0316,3.0303,3.0337,3.0338,3.0328,3.0338,3.0332,3.0347,3.0337,3.0338,3.0338,0,2.9943,2.9976,3.0019,3.0063,3.0075,3.0096,3.0132,3.0156,3.019,3.0205,3.0228,3.0246,3.0274,3.0275,3.0313,3.0304,3.0319,3.0333,3.0335,3.0338,3.0338,3.0341,3.0352,3.0354,3.0342,3.0342,3.0342,0,2.9932,2.9986,3.002,3.0037,3.0088,3.0102,3.0124,3.0158,3.0178,3.0208,3.0222,3.0254,3.0271,3.0295,3.0321,3.0319,3.0357,3.036,3.0369,3.0368,3.0375,3.0374,3.0388,3.0386,3.0386,3.0386,3.0386,0,2.9943,2.9968,3.0015,3.0035,3.0064,3.0096,3.0123,3.0146,3.0176,3.02,3.0223,3.0244,3.0277,3.0303,3.0323,3.0352,3.0359,3.0371,3.0376,3.0369,3.0367,3.0379,3.0378,3.0386,3.0386,3.0386,3.0386,0,2.9934,2.9967,3.0005,3.0052,3.0064,3.0083,3.0122,3.0142,3.0166,3.0196,3.0205,3.0241,3.0272,3.0301,3.0341,3.0355,3.0384,3.039,3.0374,3.0376,3.0384,3.0383,3.0405,3.041,3.0404,3.0405,3.0405,0,2.9939,2.9959,3.0009,3.0028,3.0051,3.008,3.0102,3.0134,3.0155,3.0196,3.0211,3.0244,3.0273,3.0321,3.035,3.0381,3.0388,3.0394,3.0393,3.0386,3.0388,3.0387,3.0389,3.0393,3.0393,3.0393,3.0393,0,2.9943,2.9959,2.9991,3.0028,3.0054,3.0084,3.0115,3.0129,3.0166,3.0189,3.0223,3.0245,3.0288,3.0321,3.0356,3.0376,3.039,3.0394,3.0398,3.039,3.038,3.0386,3.0373,3.0393,3.0393,3.0393,3.0393,3.0393,2.9942,2.9962,3.0001,3.0035,3.0062,3.0091,3.0112,3.014,3.017,3.0209,3.0225,3.026,3.0293,3.0342,3.0363,3.0389,3.0391,3.0397,3.0398,3.0399,3.0398,3.0376,3.0395,3.0395,3.0395,3.0395,3.0395,0,2.9948,2.9975,3.0006,3.005,3.0077,3.0092,3.0127,3.0148,3.0178,3.021,3.0238,3.0277,3.0309,3.0341,3.0375,3.039,3.0397,3.0397,3.0396,3.0401,3.0393,3.0387,3.0391,3.0391,3.0391,3.0391,3.0391,3.0391,2.9954,2.9989,3.0009,3.0057,3.0084,3.0119,3.0138,3.0164,3.019,3.0233,3.0261,3.0283,3.0314,3.0351,3.0381,3.0389,3.04,3.0399,3.0409,3.0401,3.0401,3.0401,3.0395,3.0401,3.0401,3.0414,3.0414,3.0414]}]]